GFSGL_250_spd_159.txt.gz
Wind_Speed
95 100 103 105 109 108 99 98 103 104 107 103 99 103 108 112 117 111 102 101 98 93 92 90 89 89 91 90 88 86 84 80 78 80 78 77 76 74 75 76 76 75 74
67 81 90 91 86 92 89 87 83 88 87 86 83 92 101 107 100 98 93 88 86 86 84 84 84 81 78 77 75 75 74 73 73 74 76 76 76 75 75 73 70 70 70
62 65 59 59 61 65 67 67 68 68 69 74 78 88 93 88 89 87 83 79 76 75 74 74 74 74 72 72 71 70 70 70 71 71 74 74 73 72 73 70 65 65 63
54 53 54 53 55 54 53 54 56 60 64 71 79 83 83 81 78 77 72 71 69 68 68 69 72 70 68 68 69 68 68 68 70 71 68 68 69 70 69 61 56 52 48
49 49 51 52 52 52 52 55 57 58 63 68 73 71 68 66 66 65 63 63 64 63 64 65 62 64 65 63 63 61 61 61 62 61 61 62 63 65 59 52 51 48 43
47 49 48 48 51 51 53 51 55 55 58 60 61 60 58 60 61 60 58 60 60 59 57 60 61 58 55 53 51 53 52 49 52 53 55 59 63 66 63 60 54 48 42
49 47 44 48 48 50 51 51 55 54 56 56 56 55 57 56 58 57 59 58 55 54 55 53 51 51 48 47 48 47 47 52 50 52 59 59 62 64 61 54 47 41 40
47 44 47 47 48 48 50 54 55 53 55 50 49 52 55 54 55 56 54 52 53 52 48 46 46 43 42 41 43 46 50 51 52 58 53 53 54 53 48 47 43 38 34
44 46 45 48 47 47 52 54 52 53 46 43 49 52 50 50 52 48 45 48 49 46 43 39 36 33 34 38 42 47 53 52 56 52 47 47 48 49 47 41 34 31 26
45 44 46 44 45 50 54 52 49 48 38 42 46 47 45 47 45 42 41 44 44 41 36 31 28 30 33 41 45 48 50 49 50 47 44 46 52 55 47 41 38 34 27
47 47 46 42 50 51 51 46 48 38 36 43 44 47 44 45 40 37 37 37 36 33 31 29 29 33 37 39 42 46 47 50 48 47 45 48 53 57 55 51 44 40 37
47 46 43 48 51 49 45 43 40 32 35 36 36 43 44 43 38 34 34 33 33 31 28 29 31 34 36 38 41 45 49 51 53 53 49 46 49 52 55 54 53 50 45
47 48 49 49 47 45 41 39 31 28 30 29 36 42 50 43 37 32 31 30 32 28 25 28 30 30 32 35 39 43 48 52 54 54 52 48 44 46 50 53 55 55 53
49 48 47 48 44 39 38 31 29 27 32 34 40 47 55 44 37 31 29 28 28 24 25 26 26 27 30 32 34 39 44 50 54 53 53 50 49 44 46 48 50 49 50
47 46 47 44 39 38 31 30 23 30 33 36 40 45 39 37 38 33 31 26 25 24 26 26 27 27 28 30 35 38 40 44 49 54 56 54 49 49 42 40 44 46 45
44 46 44 39 37 34 32 29 29 35 32 32 37 45 45 42 39 37 31 27 24 26 25 25 28 30 31 33 32 34 36 38 43 47 51 53 54 49 47 43 38 41 43
44 44 40 37 35 36 35 32 36 33 34 40 44 44 42 47 41 37 32 30 26 25 25 26 27 29 29 31 30 29 32 34 37 41 45 48 51 53 52 46 45 36 37
47 41 40 39 38 39 41 43 37 35 39 43 48 50 53 49 41 33 32 31 30 27 28 27 27 29 30 29 29 28 27 27 30 32 37 41 45 48 50 52 47 43 41
45 43 40 42 42 41 42 43 39 43 45 47 50 49 55 54 39 34 31 30 30 33 31 31 30 29 30 31 29 27 27 26 26 27 31 34 36 39 42 44 46 47 42
46 46 45 44 47 45 46 39 43 46 48 52 51 56 57 57 46 37 33 32 31 30 32 35 33 33 31 29 29 29 28 27 25 27 27 28 31 33 34 36 39 41 43
48 49 47 44 47 47 42 42 47 51 55 56 56 59 60 55 44 36 34 35 36 34 36 35 35 37 35 35 31 30 30 28 29 28 27 28 29 27 28 30 31 32 34
49 48 48 46 45 42 40 47 53 54 54 57 62 62 64 51 43 37 37 39 39 39 41 39 36 34 38 38 38 37 33 31 31 31 30 29 29 28 27 26 27 27 27
49 46 45 45 43 42 47 53 55 58 62 63 67 66 48 49 44 41 42 43 44 45 45 45 43 39 40 40 41 41 40 39 36 34 33 32 31 32 31 27 26 26 24
48 46 45 46 47 50 55 58 61 66 68 70 61 52 51 49 48 48 48 50 52 51 51 50 50 48 49 44 42 43 45 45 43 42 41 38 36 35 35 34 31 28 26
49 48 49 52 57 59 60 61 63 67 61 55 53 52 50 52 55 55 56 58 59 59 58 59 57 56 57 48 44 43 45 46 48 49 47 46 44 41 38 37 36 32 29
50 50 50 52 56 61 62 61 59 55 53 53 54 54 56 58 61 63 64 65 66 66 66 67 69 67 65 62 61 57 49 50 50 50 53 52 51 49 46 44 41 38 34

GFSGL_250_spd_162.txt.gz
Wind_Speed
80 84 82 81 84 91 98 102 104 105 110 113 119 120 129 128 131 134 126 128 128 129 115 104 99 92 85 79 74 71 70 69 71 73 69 68 68 69 68 69 67 65 64
68 73 80 84 84 88 92 99 102 108 112 114 115 123 123 123 119 116 115 119 107 103 95 88 80 75 71 68 66 68 68 69 69 67 64 64 63 63 63 64 62 56 49
53 59 65 68 74 82 89 94 95 98 96 103 101 100 100 102 92 94 98 96 92 85 80 73 69 65 64 65 65 66 68 67 63 58 59 59 61 61 64 64 55 46 40
49 50 51 55 58 60 63 64 67 72 76 75 79 80 83 80 84 89 86 82 75 70 67 62 61 63 63 61 61 61 58 54 55 57 57 58 59 61 65 63 61 49 41
51 49 48 49 52 54 56 58 58 61 62 66 68 70 70 74 76 74 70 66 63 61 57 56 58 58 55 54 51 46 47 51 53 52 54 55 55 60 64 64 55 47 39
46 47 48 49 50 52 52 52 55 59 61 62 62 66 67 66 67 63 60 57 58 58 56 58 56 50 45 40 37 39 44 50 51 51 50 49 52 57 58 56 52 46 37
44 44 45 47 51 49 51 52 54 57 58 58 62 63 63 63 60 57 53 54 55 56 56 58 51 45 41 39 40 45 49 52 53 51 47 46 46 51 57 56 48 39 33
47 44 46 50 49 48 50 51 54 56 53 58 61 61 60 58 56 53 48 51 51 53 53 53 46 43 44 44 46 50 51 52 54 52 45 44 47 50 54 55 46 38 34
45 45 49 51 49 50 49 50 53 52 54 59 59 60 57 52 48 47 47 49 47 47 49 47 44 44 44 46 49 51 54 57 56 56 52 43 45 50 56 58 54 48 40
48 50 49 48 50 47 48 50 50 51 56 57 55 54 50 44 43 46 48 44 42 43 44 41 40 42 43 44 45 48 50 53 56 59 55 54 48 50 53 56 54 52 46
50 50 48 50 46 47 49 50 48 53 55 51 51 48 41 39 43 49 41 42 38 39 39 37 37 39 39 40 42 43 44 47 50 54 59 56 57 48 50 53 53 52 53
51 50 50 46 47 48 49 49 50 52 52 50 46 41 36 35 41 46 44 44 39 35 34 35 36 37 37 39 41 41 42 45 48 52 58 62 57 52 45 47 50 52 53
52 48 47 48 48 48 50 50 50 51 47 47 43 40 39 33 39 45 47 45 42 34 32 32 35 36 37 39 40 40 41 42 46 49 52 56 60 55 48 45 47 48 47
49 49 49 48 49 50 50 48 50 47 46 41 41 36 36 33 37 45 48 51 46 39 32 30 31 33 37 38 37 37 40 41 41 43 46 49 54 59 56 49 44 46 48
49 51 49 48 49 50 46 48 47 44 41 40 43 38 38 35 40 46 49 51 44 41 35 33 31 30 32 34 37 37 38 39 38 37 41 45 48 50 54 54 48 42 43
54 51 49 50 49 46 46 48 45 42 39 44 46 42 37 35 39 47 45 51 47 45 41 35 34 32 32 33 35 37 38 37 38 38 36 39 41 44 47 48 51 48 43
51 49 49 48 47 47 48 46 43 43 43 47 45 43 37 39 41 48 48 50 53 43 40 38 35 36 34 33 35 35 36 37 35 35 36 34 35 37 40 43 44 47 47
55 55 54 49 48 47 47 45 44 44 45 46 48 50 42 40 45 49 53 55 53 42 38 35 33 33 35 37 36 35 35 34 35 34 32 33 33 32 34 37 39 40 42
58 56 55 52 49 51 47 45 48 49 47 47 46 48 43 43 47 52 54 57 54 42 38 37 37 36 36 35 37 37 36 36 36 36 35 32 31 31 29 30 34 34 35
56 53 54 50 51 46 47 49 52 51 51 48 49 45 43 45 50 54 56 58 50 40 38 39 39 40 39 39 38 39 39 39 37 36 37 37 35 32 31 29 30 31 31
54 54 50 50 43 46 50 52 52 52 51 49 48 46 48 51 53 54 59 63 48 41 40 41 41 43 44 43 41 40 41 43 43 43 41 38 38 38 34 32 30 29 26
54 49 48 48 49 49 50 51 51 50 47 46 45 45 50 54 58 61 65 65 50 46 44 43 46 47 48 47 47 47 46 48 48 45 45 45 42 39 39 37 34 32 30
51 49 50 53 54 54 54 53 51 48 48 47 46 49 55 59 62 65 66 57 50 48 48 50 52 54 56 56 55 53 55 54 54 50 46 48 47 45 44 42 40 37 34
52 51 51 56 60 58 55 54 50 48 46 49 52 56 60 64 66 65 60 55 52 52 54 58 61 64 64 64 63 63 65 63 61 58 56 50 48 49 48 47 47 43 40
57 59 61 61 59 57 55 49 46 47 48 50 53 58 63 66 66 63 61 59 58 59 63 65 68 69 70 70 71 73 74 72 70 67 61 54 53 52 50 52 52 51 48
62 61 58 59 59 57 53 50 48 49 52 56 62 63 63 63 64 64 64 64 65 67 70 72 74 76 77 79 80 80 77 77 73 67 62 58 58 58 55 57 60 56 55

GFSGL_250_spd_165.txt.gz
Wind_Speed
65 73 77 76 73 73 76 78 82 84 87 90 94 98 103 108 114 116 121 124 127 125 125 132 126 117 106 96 82 72 67 64 64 63 62 62 62 61 61 63 64 63 58
50 57 58 66 70 74 76 76 78 81 83 88 92 96 99 102 106 111 110 110 109 104 108 104 100 94 79 70 63 61 59 57 58 58 59 58 55 55 58 61 62 64 53
41 40 44 48 53 56 60 65 67 69 74 76 78 79 82 82 82 84 89 89 89 92 90 86 79 68 59 57 57 57 55 53 53 57 58 56 53 54 61 67 67 62 50
44 40 39 43 46 48 48 50 52 55 57 60 66 70 74 75 75 79 78 79 78 78 76 69 61 53 54 54 53 52 53 52 55 58 59 58 51 54 59 64 64 56 47
48 47 44 44 44 47 47 48 52 55 59 62 65 67 68 69 70 71 71 72 69 67 62 55 48 50 50 47 48 49 53 55 57 61 62 57 49 51 53 59 60 52 46
49 45 46 47 47 45 44 46 52 54 56 59 60 64 65 64 65 67 66 65 64 60 54 47 45 45 45 44 44 46 50 56 62 65 65 58 50 49 48 53 56 56 50
48 49 48 48 45 46 49 53 53 55 56 57 62 61 60 62 64 65 62 61 62 53 48 45 45 45 44 44 45 49 52 55 61 67 67 64 54 45 47 52 56 57 52
51 53 54 52 51 49 48 50 52 53 54 58 57 58 60 62 63 63 58 57 53 45 44 45 45 44 45 45 46 49 51 54 58 63 65 66 60 49 48 51 53 56 56
52 53 53 51 49 47 49 49 51 53 56 53 56 57 61 62 62 58 52 50 47 44 43 43 44 44 44 45 46 48 50 52 54 58 63 64 63 58 53 53 53 53 54
52 51 51 52 50 49 49 50 54 55 52 53 55 58 61 62 60 56 50 51 45 46 45 43 43 43 44 43 45 46 47 50 54 57 59 62 62 63 59 52 51 51 50
55 53 53 53 52 51 50 53 55 52 53 54 57 60 62 61 57 54 50 46 45 46 45 43 40 42 42 43 43 43 44 45 48 50 53 54 58 61 63 59 51 50 48
58 55 54 54 53 51 53 53 52 52 53 55 58 61 58 57 54 50 46 43 41 45 46 43 45 40 41 42 41 42 40 41 44 45 48 51 53 55 58 60 58 50 48
58 58 57 55 53 55 54 53 52 54 53 56 60 59 57 55 49 47 49 44 41 42 45 49 44 45 40 39 40 40 41 40 40 42 43 44 46 49 50 54 59 58 50
59 58 56 54 55 54 52 52 51 52 54 58 58 56 56 53 48 48 47 44 40 44 50 51 49 43 45 42 41 40 41 41 41 40 40 40 40 42 46 50 52 56 59
58 57 54 54 54 52 50 51 53 55 56 56 56 56 53 51 48 48 46 44 43 46 48 52 54 45 42 42 42 41 41 41 41 40 40 40 39 37 39 43 46 48 52
56 55 56 57 52 52 53 54 55 55 56 57 55 53 51 50 49 46 48 53 46 47 51 55 58 48 42 41 42 41 41 40 39 39 39 39 39 38 35 36 38 42 45
58 58 55 52 52 54 55 56 55 57 60 57 55 49 47 50 50 48 49 50 46 45 50 52 54 48 41 41 42 43 43 42 42 40 40 40 39 38 38 35 33 35 38
51 52 53 54 56 55 56 57 59 60 58 54 50 48 48 49 50 50 51 46 46 47 51 53 55 58 45 42 42 41 43 44 42 42 42 41 39 39 38 38 35 33 33
52 53 56 57 57 57 59 60 62 60 54 48 48 50 51 51 53 53 52 48 48 50 52 59 57 59 49 45 45 44 44 46 46 46 47 45 46 46 41 39 38 35 33
58 60 60 60 60 58 58 62 59 56 49 45 48 50 51 53 53 51 50 46 49 51 56 59 61 64 52 47 46 48 47 49 51 51 52 50 48 50 45 42 40 40 35
57 59 61 61 61 57 59 57 58 54 50 52 53 55 54 53 52 50 48 50 51 54 57 59 63 62 53 52 51 51 54 56 57 56 56 56 54 54 49 46 43 41 41
63 64 66 65 62 65 62 59 56 50 49 52 56 60 56 54 51 50 51 51 53 57 61 64 66 61 56 55 56 56 57 61 62 64 64 61 60 60 54 51 46 41 42
67 69 70 72 70 64 63 57 52 51 53 57 61 58 56 53 49 49 49 52 57 63 67 65 63 63 60 60 62 63 65 69 70 69 68 67 67 66 61 56 49 46 48
61 62 65 66 65 66 59 55 54 56 60 62 57 57 55 54 53 53 54 59 64 67 66 67 67 65 64 66 69 71 75 76 74 74 72 74 73 70 65 61 57 54 52
63 65 66 68 65 62 60 59 59 63 62 58 58 57 55 55 56 58 59 64 65 67 67 67 67 68 70 73 76 76 77 77 77 79 77 75 74 70 66 60 59 55 55
65 67 68 67 65 66 62 62 64 60 60 62 61 58 57 59 61 63 65 67 69 69 69 72 73 75 77 78 79 78 80 81 81 78 75 69 61 57 54 51 49 47 48

GFSGL_250_spd_168.txt.gz
Wind_Speed
71 68 67 73 77 77 74 76 78 79 81 80 80 81 84 84 85 86 86 84 84 87 89 89 88 87 86 86 78 66 62 60 59 57 58 60 67 64 58 57 62 67 69
48 52 51 47 54 54 53 59 65 65 62 65 70 72 69 68 71 71 73 78 80 79 81 82 79 80 79 72 62 56 57 56 56 58 60 65 71 66 58 58 62 65 66
41 41 41 38 42 44 47 52 52 53 55 58 61 60 62 64 66 70 72 74 75 75 77 77 77 74 68 60 56 54 54 57 58 60 64 69 73 70 63 59 60 63 64
44 44 43 45 44 45 46 50 51 50 52 54 54 57 59 64 69 70 70 70 68 72 75 75 73 68 61 53 52 52 54 57 58 60 63 69 72 73 66 62 60 60 63
50 50 45 44 44 44 45 48 46 48 49 52 51 56 62 67 65 67 65 63 67 72 73 71 68 64 57 50 49 51 53 55 55 58 61 67 71 72 69 61 61 61 62
52 49 45 44 44 44 46 47 46 48 48 51 55 59 62 62 64 64 61 64 67 68 68 68 66 62 52 46 44 46 49 52 54 55 58 61 67 71 70 63 59 61 62
55 51 50 49 48 47 48 49 49 50 52 55 56 59 60 62 63 61 62 63 66 65 66 65 64 60 53 46 42 43 46 49 52 52 54 58 60 64 66 67 64 61 62
53 50 52 51 48 50 52 52 53 54 56 55 55 58 61 63 60 61 63 65 65 61 60 60 62 55 51 45 44 44 45 46 49 51 51 53 56 60 64 63 66 64 62
51 52 53 53 53 52 53 53 54 56 55 54 55 58 61 61 61 64 63 65 66 59 58 56 58 57 54 48 47 47 46 46 46 49 50 50 53 57 60 64 67 69 66
53 53 52 50 49 50 52 54 55 56 54 55 56 59 61 60 63 62 62 65 64 58 54 56 56 54 52 49 45 48 48 48 48 48 48 50 50 53 56 58 60 62 65
56 56 55 53 52 53 56 55 57 56 57 58 59 59 60 60 60 62 65 65 61 56 54 55 54 47 49 51 46 45 47 48 50 51 49 49 48 48 51 54 56 57 60
61 60 58 57 57 56 56 58 59 59 59 60 61 61 58 59 60 62 66 65 60 55 53 53 51 48 49 53 51 45 45 45 47 49 50 51 49 47 46 47 49 52 55
60 59 61 61 61 61 62 62 61 61 61 61 60 59 58 58 60 64 66 66 59 53 53 53 53 49 48 51 52 49 45 46 46 47 48 48 49 49 48 45 43 45 50
62 61 62 63 62 63 63 60 60 62 62 60 60 59 57 59 61 65 66 62 55 53 53 53 55 48 46 50 51 54 47 44 47 46 47 48 47 46 47 48 47 44 43
65 63 62 62 61 61 60 60 61 61 60 59 60 58 59 59 62 67 65 58 55 54 53 52 55 47 47 49 52 53 53 46 44 44 44 43 44 46 47 48 46 47 43
63 61 59 58 59 58 58 60 60 60 60 59 57 57 59 61 66 65 58 55 53 53 53 52 53 50 49 51 52 55 55 53 48 45 45 44 44 46 48 46 48 46 44
61 61 60 59 59 59 61 64 63 63 59 56 58 58 61 63 64 60 53 53 54 53 54 53 52 49 50 50 54 53 57 58 51 48 48 49 48 50 50 50 48 50 41
61 62 62 63 64 63 62 60 56 54 55 57 57 61 61 64 62 55 51 53 55 56 56 54 52 49 51 52 52 55 58 58 53 52 53 53 54 54 55 52 53 49 47
64 63 63 62 61 58 56 54 53 55 57 57 59 60 61 65 63 58 57 59 61 58 56 54 52 51 52 54 56 59 61 59 55 54 53 54 55 57 58 58 54 48 47
60 60 58 56 57 59 59 57 59 62 60 59 61 62 67 69 61 54 54 58 60 57 54 53 52 53 53 57 62 61 61 62 62 59 57 59 62 63 64 64 61 55 50
57 57 56 57 58 57 58 60 60 61 63 64 68 71 71 67 59 60 60 62 61 58 56 54 53 54 57 62 66 66 66 65 63 60 61 64 67 68 67 65 64 61 56
57 59 59 60 62 62 61 63 66 66 67 68 71 69 68 65 61 61 63 65 62 59 58 57 56 58 63 66 67 68 68 66 68 70 70 71 70 69 69 70 69 67 63
59 61 62 62 63 65 65 63 65 62 64 67 66 67 67 66 65 66 68 63 61 61 60 61 62 64 67 69 69 70 72 73 75 75 73 70 72 72 74 73 73 65 57
73 72 70 71 69 67 66 67 66 65 66 67 68 66 66 66 64 68 64 61 62 63 62 63 65 66 68 70 72 74 76 77 79 78 75 75 76 77 75 69 62 52 48
60 63 66 66 68 67 66 65 64 66 65 67 66 65 64 64 66 61 62 63 63 62 62 64 66 67 70 74 76 76 78 80 78 78 78 78 78 73 65 56 51 48 44
69 69 72 72 73 71 71 68 70 71 70 72 67 65 65 62 62 63 63 62 61 62 64 66 69 72 72 73 78 80 76 77 79 79 79 75 68 61 56 52 48 43 40

GFSGL_250_spd_171.txt.gz
Wind_Speed
77 72 69 71 71 72 72 71 75 73 72 80 77 80 69 63 63 65 70 71 72 76 79 80 81 83 83 83 79 72 67 66 61 58 56 61 64 65 70 74 72 65 61
67 63 58 59 60 59 61 62 54 60 58 54 51 53 59 57 60 62 64 67 73 75 75 74 78 81 80 79 75 69 65 62 57 53 55 58 63 65 67 72 77 72 66
59 56 54 50 46 51 52 48 47 47 48 52 53 54 54 54 59 60 64 70 71 73 72 72 76 79 78 76 71 67 63 59 53 53 55 58 63 64 67 70 75 79 70
49 49 48 46 43 41 42 40 41 46 45 47 51 52 52 55 57 62 67 70 69 72 69 73 74 76 75 74 69 67 64 59 52 53 53 56 59 64 65 68 72 73 76
55 53 49 45 46 46 43 43 45 45 47 48 49 52 54 56 61 63 67 68 69 69 69 67 71 74 72 69 70 67 60 58 54 50 52 54 57 59 61 64 68 72 74
58 55 49 46 45 47 50 52 50 52 54 53 55 54 54 56 61 64 67 68 70 69 67 68 69 69 67 65 65 63 59 54 53 51 51 53 55 57 58 58 61 64 67
49 46 46 48 49 50 53 54 55 57 56 55 53 52 54 57 62 64 66 67 70 68 69 68 69 69 64 63 60 61 60 56 53 54 51 51 53 53 54 57 58 61 64
52 52 54 54 53 53 54 52 52 52 54 55 52 52 56 60 64 65 66 69 69 70 69 69 70 69 63 62 60 58 57 56 49 48 48 51 53 54 54 54 56 58 63
59 56 54 52 52 50 47 48 50 53 53 53 54 57 60 62 64 66 68 70 69 69 70 70 73 67 62 59 59 56 57 57 51 48 50 51 54 55 55 57 57 56 58
66 59 53 51 51 53 52 51 51 53 54 55 57 61 62 63 66 67 70 69 68 69 70 71 72 65 62 61 59 53 52 56 57 51 48 49 51 52 52 53 56 56 55
62 59 53 52 53 54 55 52 54 55 56 56 59 60 62 66 65 66 68 68 68 68 70 70 70 62 61 60 59 54 52 57 56 55 54 52 50 50 51 53 56 56 57
58 56 56 57 58 58 55 54 56 58 61 64 64 65 65 64 65 67 67 66 65 67 69 69 68 63 60 58 59 58 54 55 55 56 56 54 52 51 49 52 53 57 61
56 54 56 57 59 59 58 59 62 64 65 64 65 65 65 65 67 67 65 63 65 67 70 69 64 60 61 59 59 59 57 56 53 55 55 57 52 50 50 49 51 54 57
57 57 58 58 58 59 61 61 62 63 64 66 65 64 65 65 65 66 64 62 62 65 67 68 58 58 61 61 59 59 57 56 56 55 54 56 54 52 51 52 52 53 54
58 57 58 60 62 64 64 64 64 65 66 63 62 63 64 67 66 64 60 62 62 64 68 66 61 62 64 64 61 58 56 57 55 56 55 56 56 53 51 51 49 50 53
62 61 62 64 66 65 67 67 67 66 63 63 63 64 66 65 61 58 61 62 62 66 71 71 63 63 64 63 61 57 56 57 58 59 58 57 57 59 53 51 51 52 53
63 63 63 64 64 66 67 66 65 63 62 63 64 67 64 59 56 60 62 63 66 71 75 75 65 62 63 65 63 58 57 58 58 61 63 61 60 58 55 55 55 55 55
61 62 64 65 64 65 64 63 62 63 65 64 66 64 60 60 61 62 64 66 72 74 70 70 67 66 69 69 65 60 59 59 62 64 64 63 64 62 60 61 59 60 60
63 62 63 64 64 61 63 66 66 66 65 65 62 61 61 60 62 66 67 72 74 72 72 70 68 67 69 68 65 61 61 62 64 66 66 67 67 66 66 66 66 65 63
64 63 62 62 61 62 65 66 68 64 61 62 63 62 62 64 65 71 71 71 71 72 70 68 68 69 70 68 64 63 64 65 67 68 68 68 70 69 70 70 71 70 68
58 60 63 66 65 66 66 63 60 63 61 59 60 64 66 68 72 73 71 71 73 71 69 70 69 69 68 64 64 64 63 64 66 67 70 70 71 73 73 74 73 71 69
62 60 61 60 64 62 58 55 56 57 60 63 65 66 70 73 75 70 70 70 72 70 69 67 67 65 63 64 63 62 63 65 68 71 70 72 76 74 74 74 74 72 69
55 57 59 59 59 60 60 60 59 60 62 64 67 73 75 72 70 70 73 75 74 71 68 67 63 64 63 62 61 62 66 70 71 73 75 77 78 77 76 74 74 67 58
64 65 63 61 62 61 64 64 67 70 74 77 77 72 74 73 73 74 77 74 69 68 63 61 63 63 61 62 63 66 70 72 75 78 80 80 78 77 74 71 62 54 52
65 66 66 67 68 70 74 73 75 76 75 71 71 74 75 73 78 72 72 72 65 63 63 64 64 63 63 64 68 71 74 77 80 81 80 78 77 74 65 59 55 52 47
74 75 75 73 74 74 75 75 74 71 70 72 76 78 76 83 77 71 69 64 65 68 66 63 63 63 65 69 72 76 79 81 83 81 77 74 68 62 58 52 48 44 42